Погода Охоны

Погода Охоны : погода сейчас, прогноз погоды и архив. Всё, что Вы хотите узнать о погоде Охоны!

Поиск расширенной информации на нашем сайте:

Другие новости

Новости СМИ2

Главная страница сайта

Новости сайта

03.07.2017

Напоминаем, что на нашем специализированном сайте Метеоцентр.Азия вы можете получить высокодетализированные автоматические прогнозы погоды по пунктам России, СНГ и мира в авиационном формате (включающие направление и скорость ветра, видимость, явления погоды, количество и форму облачности, нижнюю и верхнюю границу облачности).


Погода Охоны - сегодня

Время (UTC), дата Ветер
(°,м/с) 
Видим.   Явления Облачность Т
(°С)
Тd
(°С)
f(%) Тe
(°С)
Pmin
(гПа)
dP
(гПа)
Po
(мм)
O2
(г/м3)
Тmin Tmax R s Состояние
почвы
15 21.09.18 тихо ()   н/о    н/о 
+20.1 +16 77 +31  1014.7  -0.4  748  277           
21 21.09.18 тихо ()   н/о    н/о 
+12.2 +11.9 98 +16  1014.9  -0.7  748  286           
00 22.09.18 170 (Ю) н/о    н/о 
+13.2 +12.9 98 +19  1013.9  -0.9  747  285           
03 22.09.18 170 (Ю) н/о    н/о 
+13.3 +13 98 +21  1012.8  -1.1  746  284  +11.1         
09 22.09.18 180 (Ю) н/о    н/о 
+22.8 +13.3 55 +29  1008.6  -2.1  744  274           
12 22.09.18 240 (ЮЗ) н/о    н/о 
+24.9 +11.4 43 +28  1006.5  -1.9  742  272           
15 22.09.18 170 (Ю) н/о    н/о 
+22.1 +11.2 50 +25  1005  -1.6  741  274      0.1     
21 22.09.18 260 (З) н/о    н/о 
+10.9 +9.8 93 +12  1007.2  0.6  742  286           
00 23.09.18 250 (З) н/о    н/о 
+9.9 +9.1 95 +10  1006  -1.3  741  287           
03 23.09.18 240 (ЮЗ) н/о    н/о 
+9.4 +8.8 96 +9  1005.3  -0.7  741  287  +9.4       
09 23.09.18 240 (ЮЗ) н/о    н/о 
+11.2 +9.3 88 +12  1004.3  -0.2  740  285           
12 23.09.18 250 (З) н/о    н/о 
+14.2 +7.2 63 +14  1004.2  0.1  740  282           
15 23.09.18 тихо ()   н/о    н/о 
+12.1 +7.6 74 +12  1004.2  -0.1  740  284         
18 23.09.18 250 (З) 20000 м    ясно 
+7.5 +6.4 93 +8  1004.9  0.4  740  289    +14.4  0.4     
21 23.09.18 тихо ()   н/о    н/о 
+5.6 +5 96 +6  1004.9  -0.2  740  291           
00 24.09.18 240 (ЮЗ) н/о    н/о 
+4.7 +4.4 98 +6  1005.6  0.7  741  293           
03 24.09.18 230 (ЮЗ) н/о    н/о 
+5.6 +5.3 98 +6  1005.5  -0.1  741  292  +4.4    0.2     
09 24.09.18 160 (Ю) н/о    н/о 
+9 +6.5 84 +9  1004.8  -0.5  740  288           
12 24.09.18 140 (ЮВ) н/о    н/о 
+9.8 +6.9 82 +11  1004.8  740  287           
15 24.09.18 150 (ЮВ) н/о    н/о 
+9 +7.2 88 +10  1003.5  -1.3  739  287           
21 24.09.18 030 (СВ) н/о    н/о 
+7.3 +6.9 97 +7  1000  -2.2  737  288           
00 25.09.18 010 (С) н/о    н/о 
+6.9 +6.2 95 +7  997.6  -2.3  735  288           
03 25.09.18 350 (С) н/о    н/о 
+6.9 +6.1 95 +7  997.4  -0.2  735  288  +6.8    11     
09 25.09.18 300 (СЗ) н/о    н/о 
+7.4 +5.4 87 +7  1002.2  2.9  738  289           
15 25.09.18 300 (СЗ) 3{12}  н/о    н/о 
+8.3 +0.5 58 +8  1008.3  3.1  743  290         
Время (UTC), дата Ветер
(°,м/с) 
Видим.   Явления Облачность Т
(°С)
Тd
(°С)
f(%) Тe
(°С)
Pmin
(гПа)
dP
(гПа)
Po
(мм)
O2
(г/м3)
Тmin Tmax R s Состояние
почвы

Для получения пояснительной информации подведите курсор к названию столбца.

ПОГОДА Охоны - архив

Всё, что Вы хотите узнать о погоде Охоны - удобно и подробно!

Выберите нужную дату (начиная с 1 января 2015* года) и нажмите кнопку "Найти".
Будут отображены архивные сводки погоды по пункту Охоны, начиная с указанной даты.


Отображать данные в формате CSV (для использования в таблицах Excel)


Внимание! Наш архив погоды предназначен исключительно для личного некоммерческого использования в познавательных целях. Если Вам необходимы официальные справки о состоянии погоды (для производственных, юридических, коммерческих и т.п. целей), обращайтесь в органы Росгидромета.

*Примечание: данная дата относится к архиву по метеостанциям СССР (Россия, СНГ, Балтия).
Архив по метеостанциям Зарубежной Европы и Азии (кроме Китая) хранится 10 дней, по другим регионам земного шара (Китай, Африка, Америка, Австралия, Океания) - 1 день.

Охоны - район местоположения метеостанции


Название, широта, долгота, высота метеостанции:
Охоны 58.6°ш. 35.6°д. 145 м над ур. моря [Российская Федерация]

Дополнительная информация

В oтличие oт бoльшинства пoгoдных сайтoв мы публикуем пoдрoбную метеoинфoрмацию в детальнoм прoфессиoнальнoм фoрмате.

Характеристики температуры и влажнoсти вoздуха измеряются на высoте 2 м в тени вдали oт зданий и деревьев.
Скoрoсть ветра измеряется на высoте 10 м (на урoвне рoста челoвека скoрoсть ветра ниже в 1.5-2 раза). Если метеoстанция нахoдится в гoрoде или в лесу, тo скoрoсть ветра занижена на 2-4 м/с пo сравнению с oткрытым местoм. Скoрoсть ветра над акватoриями крупных рек и oзёр, а также на вершинах хoлмoв на 2-5 м/с выше, чем в oбычных услoвиях.
Атмoсфернoе давление в разных тoчках местнoсти мoжет значительнo oтличаться oт давления на метеoстанции, в зависимoсти oт услoвий рельефа (при пoдъёме на 10 м давление пoнижается примернo на 1 мм рт.ст.).